Weather Roundup
Issued by NWS Springfield, MO

Home | Current Version | Previous Version | Text Only | Print | Product List | Glossary On
Versions: 1 2 3 4 5 6 7 8 9 10 11 12 13 14 15 16 17 18 19 20 21 22 23 24 25 26 27 28 29 30 31 32 33 34 35 36 37 38 39 40 41 42 43 44 45 46 47 48 49 50
000
NZUS99 KSGF 250907
HRRSGF

HOURLY WEATHER
NATIONAL WEATHER SERVICE SPRINGFIELD MO
400 AM CDT THU AUG 25 2016

......SGF CWA......

CITY           SKY/WX    TMP DP  RH WIND       PRES   REMARKS
SPRINGFIELD    CLEAR     72  67  84 S8        30.09R
JOPLIN         MOCLDY    76  67  73 NW14      30.10R
WEST PLAINS    CLEAR     71  67  87 W3        30.13R
ROLLA          CLEAR     71  69  93 SW5       30.07S
OSAGE BEACH    CLEAR     71  70  96 E3        30.08R
BRANSON        CLEAR     72  66  83 CALM      30.12R

......SURROUNDING SGF CWA......

CITY           SKY/WX    TMP DP  RH WIND       PRES   REMARKS
CHANUTE        CLOUDY    68  66  93 E3        30.05F
PARSONS        MOCLDY    69  66  90 CALM      30.06F
COFFEYVILLE    CLOUDY    71  65  81 E5        30.05F
EMPORIA        CLOUDY    70  69  97 S8        30.03F
GROVE OK       CLEAR     73  68  83 CALM      30.08S
ROGERS AR      CLEAR     71  67  87 S3        30.11S
SILOAM SPRINGS CLEAR     72  61  68 CALM      30.11S
HARRISON AR    CLEAR     73  68  84 CALM      30.11R
NEAR YELLVILLE CLEAR     70  64  83 CALM      30.07R

......KANSAS AND MISSOURI......

CITY           SKY/WX    TMP DP  RH WIND       PRES   REMARKS
KANSAS CTY INT LGT RAIN  70  68  93 S3        30.05R FOG
DOWNTOWN KC    TSTM      72  70  93 SW12      30.06R FOG
COLUMBIA       CLEAR     69  67  93 CALM      30.06R
SEDALIA        PTCLDY    69  68  96 SE3       30.06S
ST JOSEPH      CLOUDY    70  68  93 NW5       30.05R
ST LOUIS       PTCLDY    77  68  73 W3        30.06S
SPIRIT OF STL  CLEAR     74  70  87 NW5       30.04S
KIRKSVILLE     CLOUDY    71  69  93 SW6       30.05R
WICHITA        CLOUDY    75  68  78 NW14G20   30.04R THUNDER
TOPEKA         LGT RAIN  71  70  96 NW3       30.05S
OLATHE         LGT RAIN  69  69 100 NE5       30.04F

......TENNESSEE......

CITY           SKY/WX    TMP DP  RH WIND       PRES   REMARKS
MEMPHIS        PTCLDY    81  74  79 SW5       30.09S
NASHVILLE      PTCLDY    76  71  85 CALM      30.14R

......ARKANSAS.......

CITY           SKY/WX    TMP DP  RH WIND       PRES   REMARKS
FAYETTEVILLE   CLEAR     67  66  97 CALM      30.11R
FT SMITH       CLEAR     74  69  85 N5        30.06S
LITTLE ROCK    PTCLDY    79  74  84 CALM      30.07F

......OKLAHOMA.......

CITY           SKY/WX    TMP DP  RH WIND       PRES   REMARKS
TULSA          CLEAR     80  69  69 S9        30.02S
PONCA CITY     CLOUDY    72  68  87 SE7       30.01F
MCALESTER      CLEAR     75  69  81 S3        30.06S
OKLAHOMA CITY  PTCLDY    72  69  90 S7        30.04F

......IOWA............

CITY           SKY/WX    TMP DP  RH WIND       PRES   REMARKS
DES MOINES     MOCLDY    69  65  86 N6        30.05S
QUAD CITIES    CLOUDY    71  69  93 SW5       29.99F

......ILLINOIS........

CITY           SKY/WX    TMP DP  RH WIND       PRES   REMARKS
QUINCY         CLOUDY    70  70 100 S7        30.03R
CHICAGO        CLOUDY    73  70  90 SW6       29.98R




USA.gov is the U.S. government's official web portal to all federal, state and local government web resources and services.